Location: Unspecified
(43.4680°N, 87.1740°E)
Time: 20:57:36
(UTC+00:00)

CZ-4C R/B - Pass Details

Date: 17 April 2021
Orbit: 612 x 1390 km, 63.4° (Epoch: 11 May)

Event Time Altitude Azimuth Distance (km) Brightness Sun altitude
Rises 14:24:48 0° 251° (WSW) 3,063 5.7 -15.4°
Reaches altitude 10° 14:27:15 10° 263° (W) 2,235 5.2 -15.8°
Maximum altitude 14:31:42 29° 324° (NW) 1,461 4.2 -16.5°
Drops below altitude 10° 14:36:57 10° 24° (NNE) 2,658 4.9 -17.3°
Sets 14:40:09 0° 35° (NE) 3,753 5.6 -17.7°
